[[{"header":{"parameterUnit":"m.s-1","parameterCategory":1,"la1":30.2991,"la2":30.254,"lo1":-89.0895,"lo2":-89.0444,"dy":0.0017,"dx":0.0017,"nx":28,"ny":28,"refTime":"2023-10-07T03:00:00:Z","depth":0,"parameterNumber":2,"parameterNumberName":"U-component_of_WINDS"},"data":[0,0,0,0,0,0,0,0,0,0,0,0,0,0,0,0,0,0,0,0,0,0,0,0,0,0,0,0,0,0,0,0,0,0,0,0,0,0,0,0,0,0,0,0,0,0,0,0,0,0,0,0,0,0,0,0,0,0,-0.6444,-0.6444,0,-0.6457,-0.6457,-0.6457,-0.6412,-0.6411,-0.641,-0.6408,-0.6423,-0.6425,-0.6426,0,0,0,0,0,0,0,0,0,0,0,0,0,-0.6382,-0.6384,-0.6444,-0.6444,-0.6444,-0.6457,-0.6457,-0.6457,-0.6413,-0.6411,-0.6409,-0.6408,-0.6423,-0.6425,-0.6427,0,0,0,0,0,0,0,0,0,0,0,0,0,-0.6404,-0.6384,-0.6444,-0.6424,-0.6422,-0.6457,-0.6457,-0.6457,-0.6413,-0.6411,-0.6409,-0.6407,-0.6422,-0.6424,-0.6427,-0.6482,0,0,-0.6434,-0.6435,0,0,0,0,0,0,0,0,-0.6402,-0.6406,-0.6426,-0.6425,-0.6423,-0.6431,-0.644,-0.6466,-0.6414,-0.6416,-0.6408,-0.6406,-0.6427,-0.6429,-0.6436,-0.6483,-0.6484,-0.6435,-0.6436,-0.6437,-0.6438,0,0,0,0,0,0,0,-0.6401,-0.6405,-0.6449,-0.6427,-0.6425,-0.6414,-0.6415,-0.6445,-0.6433,-0.6416,-0.6413,-0.6415,-0.6426,-0.6434,-0.6436,-0.6484,-0.6434,-0.6437,-0.6438,-0.6439,-0.6577,-0.6579,0,0,0,0,0,0,-0.6402,-0.6404,-0.6449,-0.6449,-0.6408,-0.6417,-0.6418,-0.6431,-0.6433,-0.6431,-0.6417,-0.6413,-0.6431,-0.6433,-0.6437,-0.6503,-0.6437,-0.6439,-0.6441,-0.6575,-0.6578,-0.658,0,0,0,0,0,0,-0.6401,-0.6406,-0.6448,-0.6426,-0.643,-0.642,-0.6435,-0.6432,-0.6439,-0.6433,-0.6431,-0.6427,-0.6429,-0.6433,-0.6471,-0.6502,-0.644,-0.6443,-0.6573,-0.6576,-0.6579,-0.6635,0,0,0,0,0,0,-0.6399,-0.6406,-0.6427,-0.6427,-0.6432,-0.6483,-0.6437,-0.6434,-0.6444,-0.6439,-0.6442,-0.6441,-0.6428,-0.6468,-0.6474,-0.6505,-0.6445,-0.657,-0.6574,-0.6578,-0.663,-0.6639,-0.6647,0,0,0,0,0,-0.6397,-0.6442,-0.6428,-0.6434,-0.6458,-0.6484,-0.6487,-0.6472,-0.6446,-0.6467,-0.6463,-0.644,-0.6498,-0.6472,-0.6478,-0.6511,-0.6568,-0.6573,-0.6578,-0.6626,-0.6638,-0.6647,0,0,0,0,0,0,-0.6447,-0.6442,-0.6426,-0.6473,-0.6479,-0.6477,-0.6503,-0.6484,-0.6498,-0.6493,-0.6473,-0.6474,-0.6517,-0.6517,-0.6489,-0.6565,-0.6528,-0.6535,-0.6563,-0.6574,-0.6583,-0.6582,-0.6447,0,0,0,0,0,-0.6464,-0.6486,-0.648,-0.6521,-0.6525,-0.6514,-0.6525,-0.6512,-0.6518,-0.6521,-0.6519,-0.6527,-0.6546,-0.656,-0.6577,-0.6629,-0.663,-0.6654,-0.6663,-0.667,-0.6677,-0.6705,-0.6716,-0.6596,-0.6596,-0.6596,0,0,-0.6498,-0.6498,-0.6513,-0.6531,-0.6535,-0.6559,-0.6516,-0.6543,-0.6561,-0.6525,-0.6561,-0.656,-0.6567,-0.6613,-0.6633,-0.6614,-0.671,-0.6676,-0.6682,-0.6685,-0.6711,-0.6723,-0.6733,-0.66,-0.6599,-0.6599,0,0,-0.6573,-0.6574,-0.661,-0.6614,-0.6619,-0.6611,-0.662,-0.662,-0.6618,-0.6654,-0.6628,-0.6648,-0.6682,-0.6688,-0.6696,-0.6773,-0.6753,-0.6779,-0.6825,-0.6853,-0.6862,-0.6871,-0.69,-0.691,-0.6785,-0.6785,-0.6785,0,-0.6615,-0.665,-0.663,-0.6659,-0.6668,-0.6636,-0.6672,-0.6677,-0.6688,-0.6696,-0.6674,-0.6717,-0.6719,-0.6766,-0.6785,-0.6791,-0.6801,-0.6779,-0.6862,-0.6871,-0.6878,-0.6905,-0.6916,-0.6788,-0.6788,-0.6787,-0.6787,0,-0.6702,-0.6726,-0.6753,-0.6765,-0.6777,-0.6809,-0.6795,-0.681,-0.6795,-0.679,-0.6827,-0.6828,-0.6846,-0.6855,-0.6842,-0.6901,-0.6889,-0.6866,-0.6829,-0.6893,-0.6919,-0.6929,-0.6793,-0.6792,-0.6791,-0.679,0,0,-0.681,-0.681,-0.6821,-0.6826,-0.6829,-0.6848,-0.6878,-0.6895,-0.6909,-0.6917,-0.6943,-0.6972,-0.695,-0.6959,-0.6946,-0.697,-0.7032,-0.6943,-0.6943,-0.6961,-0.7099,-0.7118,-0.713,-0.7018,-0.702,-0.7021,-0.7099,0,-0.6885,-0.6938,-0.6921,-0.6974,-0.6996,-0.6966,-0.6992,-0.6998,-0.6993,-0.7012,-0.7006,-0.7028,-0.6996,-0.7002,-0.7024,-0.702,-0.706,-0.7014,-0.7043,-0.7045,-0.7045,-0.7143,-0.7163,-0.7236,-0.7108,-0.711,-0.7111,0,-0.698,-0.6992,-0.7048,-0.7047,-0.7056,-0.7081,-0.7095,-0.7113,-0.7118,-0.7113,-0.7122,-0.7104,-0.7134,-0.7096,-0.7139,-0.7108,-0.7119,-0.7119,-0.7121,-0.7125,-0.7083,-0.7151,-0.7259,-0.7271,-0.7126,-0.7125,-0.7124,0,-0.7056,-0.7086,-0.7123,-0.7128,-0.7128,-0.7146,-0.7147,-0.7151,-0.7162,-0.7174,-0.7181,-0.7197,-0.7206,-0.7219,-0.7206,-0.7179,-0.7251,-0.7211,-0.7249,-0.7249,-0.7267,-0.7266,-0.738,-0.7271,-0.7271,-0.727,-0.727,0,-0.7142,-0.7178,-0.7157,-0.718,-0.7219,-0.7199,-0.7239,-0.7236,-0.7239,-0.7262,-0.7235,-0.7257,-0.7237,-0.7257,-0.7247,-0.7285,-0.7288,-0.7286,-0.7283,-0.729,-0.729,-0.7298,-0.7293,-0.7273,-0.7273,-0.7272,-0.7272,0,-0.7235,-0.7222,-0.7261,-0.7257,-0.7257,-0.7287,-0.7284,-0.7306,-0.7298,-0.7327,-0.7333,-0.7322,-0.7344,-0.7331,-0.7354,-0.7347,-0.7397,-0.7386,-0.7395,-0.7393,-0.7432,-0.7429,-0.7556,-0.7572,-0.7451,-0.7452,-0.7453,0,-0.7292,-0.7318,-0.7318,-0.7331,-0.7334,-0.7355,-0.7366,-0.7347,-0.736,-0.7368,-0.7389,-0.7408,-0.7424,-0.7461,-0.7455,-0.7473,-0.7464,-0.7507,-0.7466,-0.7472,-0.7467,-0.7466,-0.7469,-0.7516,-0.7517,-0.7518,-0.7519,0,-0.7395,-0.7387,-0.7404,-0.7419,-0.7433,-0.7444,-0.7452,-0.7465,-0.7446,-0.7461,-0.7484,-0.7495,-0.7518,-0.7539,-0.7554,-0.7556,-0.7535,-0.7532,-0.7542,-0.755,-0.7555,-0.7554,-0.7419,-0.753,-0.7528,-0.7528,-0.7527,-0.7527,-0.7473,-0.7495,-0.7498,-0.7518,-0.7522,-0.7531,-0.7552,-0.7546,-0.7564,-0.7582,-0.7569,-0.7596,-0.7601,-0.7618,-0.7623,-0.7644,-0.7627,-0.7641,-0.7644,-0.7649,-0.7655,-0.7549,-0.7646,-0.7646,-0.7646,-0.7645,-0.7645,0,-0.7576,-0.7576,-0.7595,-0.7608,-0.7623,-0.7601,-0.7609,-0.7624,-0.7648,-0.7654,-0.7669,-0.7695,-0.7715,-0.771,-0.7728,-0.7746,-0.7737,-0.7752,-0.7751,-0.7752,-0.7668,-0.7659,-0.7759,-0.7759,-0.7759,-0.7759,-0.7759,-0.7759,-0.7632,-0.7669,-0.7662,-0.7701,-0.7701,-0.7727,-0.7734,-0.7742,-0.7747,-0.7777,-0.7793,-0.7789,-0.7791,-0.7809,-0.7826,-0.7825,-0.7833,-0.7852,-0.7847,-0.7769,-0.7758,-0.7747,-0.7739,-0.7853,-0.7854,-0.7929,-0.793,-0.7931]},{"header":{"parameterUnit":"m.s-1","parameterCategory":1,"la1":30.2991,"la2":30.254,"lo1":-89.0895,"lo2":-89.0444,"dy":0.0017,"dx":0.0017,"nx":28,"ny":28,"refTime":"2023-10-07T03:00:00:Z","depth":0,"parameterNumber":3,"parameterNumberName":"V-component_of_WINDS"},"data":[0,0,0,0,0,0,0,0,0,0,0,0,0,0,0,0,0,0,0,0,0,0,0,0,0,0,0,0,0,0,0,0,0,0,0,0,0,0,0,0,0,0,0,0,0,0,0,0,0,0,0,0,0,0,0,0,0,0,-1.7477,-1.7477,0,-1.7533,-1.7534,-1.7534,-1.7535,-1.7535,-1.7534,-1.7533,-1.7591,-1.7593,-1.7595,0,0,0,0,0,0,0,0,0,0,0,0,0,-1.7371,-1.7372,-1.7477,-1.7477,-1.7478,-1.7533,-1.7534,-1.7534,-1.7535,-1.7535,-1.7534,-1.7533,-1.759,-1.7593,-1.7595,0,0,0,0,0,0,0,0,0,0,0,0,0,-1.7421,-1.7373,-1.7477,-1.7485,-1.7487,-1.7533,-1.7534,-1.7535,-1.7536,-1.7535,-1.7533,-1.7533,-1.7589,-1.7592,-1.7596,-1.7637,0,0,-1.7606,-1.7607,0,0,0,0,0,0,0,0,-1.7418,-1.7425,-1.7483,-1.7485,-1.7486,-1.7526,-1.7517,-1.7569,-1.7536,-1.7517,-1.7533,-1.7532,-1.757,-1.7575,-1.7588,-1.7639,-1.7642,-1.7606,-1.7608,-1.7609,-1.761,0,0,0,0,0,0,0,-1.7414,-1.7422,-1.7499,-1.7484,-1.7486,-1.7486,-1.7492,-1.7527,-1.7549,-1.7519,-1.7519,-1.7525,-1.7571,-1.7584,-1.7589,-1.7643,-1.7606,-1.7609,-1.7611,-1.7612,-1.7733,-1.7734,0,0,0,0,0,0,-1.7409,-1.7419,-1.7497,-1.7501,-1.7449,-1.7489,-1.7496,-1.7514,-1.7548,-1.7552,-1.7526,-1.7525,-1.7579,-1.7585,-1.7591,-1.7643,-1.7609,-1.7612,-1.7614,-1.7732,-1.7733,-1.7735,0,0,0,0,0,0,-1.7407,-1.7416,-1.7495,-1.746,-1.747,-1.7492,-1.7513,-1.7516,-1.753,-1.7554,-1.7558,-1.7536,-1.7579,-1.7586,-1.7626,-1.7645,-1.7614,-1.7617,-1.773,-1.7732,-1.7734,-1.7747,0,0,0,0,0,0,-1.7404,-1.7415,-1.7431,-1.746,-1.7472,-1.7529,-1.7514,-1.7518,-1.7536,-1.7535,-1.7565,-1.7569,-1.7579,-1.7621,-1.7629,-1.7649,-1.7619,-1.7729,-1.7731,-1.7734,-1.7745,-1.775,-1.7753,0,0,0,0,0,-1.74,-1.7432,-1.7432,-1.7441,-1.7492,-1.753,-1.7536,-1.7547,-1.7537,-1.7554,-1.7569,-1.7568,-1.7641,-1.7625,-1.7634,-1.7656,-1.7728,-1.7731,-1.7733,-1.7744,-1.7749,-1.7753,0,0,0,0,0,0,-1.7404,-1.7436,-1.7436,-1.7479,-1.7502,-1.753,-1.7551,-1.7552,-1.7578,-1.7576,-1.7588,-1.7595,-1.7635,-1.7649,-1.763,-1.7698,-1.7683,-1.7688,-1.7688,-1.7693,-1.7697,-1.7694,-1.7622,0,0,0,0,0,-1.741,-1.7438,-1.7464,-1.7499,-1.7511,-1.7529,-1.7545,-1.7552,-1.7576,-1.7586,-1.7604,-1.7628,-1.7657,-1.7675,-1.7703,-1.7747,-1.7754,-1.7766,-1.777,-1.7773,-1.7778,-1.7804,-1.781,-1.7744,-1.7744,-1.7744,0,0,-1.7422,-1.7443,-1.746,-1.7501,-1.7519,-1.7548,-1.7537,-1.7568,-1.759,-1.759,-1.763,-1.7644,-1.7671,-1.7713,-1.7733,-1.7726,-1.7797,-1.7776,-1.7779,-1.7782,-1.7807,-1.7814,-1.7819,-1.7746,-1.7746,-1.7745,0,0,-1.7461,-1.7478,-1.7511,-1.753,-1.7558,-1.757,-1.7577,-1.7606,-1.7616,-1.7655,-1.7657,-1.7682,-1.7731,-1.7751,-1.7767,-1.7814,-1.7814,-1.7822,-1.7843,-1.7868,-1.7874,-1.7878,-1.7897,-1.7903,-1.7826,-1.7826,-1.7826,0,-1.7473,-1.7517,-1.7527,-1.7559,-1.7577,-1.7579,-1.7612,-1.763,-1.7665,-1.7678,-1.767,-1.7732,-1.775,-1.7798,-1.781,-1.7822,-1.7832,-1.782,-1.7872,-1.7877,-1.7881,-1.7899,-1.7906,-1.7827,-1.7827,-1.7827,-1.7827,0,-1.7532,-1.7562,-1.7584,-1.762,-1.764,-1.7672,-1.7688,-1.7707,-1.7712,-1.7725,-1.7765,-1.7787,-1.782,-1.7831,-1.7835,-1.788,-1.7876,-1.7869,-1.7855,-1.7889,-1.7906,-1.7913,-1.7829,-1.7828,-1.7828,-1.7828,0,0,-1.7575,-1.7616,-1.7624,-1.7641,-1.7673,-1.7697,-1.7729,-1.7761,-1.7779,-1.7803,-1.7832,-1.7873,-1.7868,-1.7886,-1.7892,-1.7914,-1.7953,-1.7906,-1.7907,-1.7916,-1.8006,-1.8012,-1.802,-1.7952,-1.7953,-1.7954,-1.8004,0,-1.7619,-1.7677,-1.7687,-1.7738,-1.7768,-1.777,-1.7798,-1.7821,-1.7834,-1.786,-1.7874,-1.7904,-1.7894,-1.7906,-1.7927,-1.7943,-1.7971,-1.7939,-1.798,-1.7981,-1.7976,-1.8029,-1.8035,-1.8081,-1.8011,-1.8012,-1.8013,0,-1.7678,-1.7705,-1.7759,-1.7788,-1.7801,-1.7826,-1.7857,-1.7882,-1.7908,-1.7916,-1.7937,-1.7941,-1.7975,-1.7958,-1.8006,-1.7985,-1.8002,-1.8012,-1.8014,-1.802,-1.8001,-1.8038,-1.8096,-1.8104,-1.8023,-1.8022,-1.8021,0,-1.7707,-1.7757,-1.7796,-1.781,-1.7844,-1.7862,-1.7877,-1.7902,-1.7921,-1.7948,-1.7961,-1.7991,-1.8009,-1.8032,-1.8044,-1.803,-1.8093,-1.8076,-1.8102,-1.8101,-1.8117,-1.8116,-1.818,-1.8123,-1.8123,-1.8123,-1.8123,0,-1.7756,-1.779,-1.781,-1.7835,-1.7873,-1.7884,-1.7921,-1.7936,-1.7958,-1.7986,-1.7988,-1.8014,-1.8028,-1.8056,-1.8065,-1.8105,-1.8112,-1.8121,-1.8123,-1.8122,-1.8121,-1.8135,-1.8133,-1.8125,-1.8124,-1.8124,-1.8124,0,-1.7797,-1.7811,-1.7855,-1.7884,-1.7892,-1.7919,-1.7944,-1.7968,-1.798,-1.8015,-1.8024,-1.8044,-1.8077,-1.8091,-1.8132,-1.8138,-1.8185,-1.8184,-1.8177,-1.8178,-1.8204,-1.8202,-1.8282,-1.8294,-1.8226,-1.8227,-1.8227,0,-1.7828,-1.7855,-1.7886,-1.7905,-1.7921,-1.7951,-1.7971,-1.7983,-1.8004,-1.8036,-1.8056,-1.809,-1.8117,-1.8171,-1.8189,-1.822,-1.8222,-1.8247,-1.8226,-1.8225,-1.8225,-1.8224,-1.8228,-1.8252,-1.8252,-1.8253,-1.8253,0,-1.7884,-1.789,-1.7919,-1.7951,-1.7974,-1.8,-1.8024,-1.804,-1.8055,-1.8078,-1.8113,-1.8134,-1.8176,-1.821,-1.8243,-1.8258,-1.8259,-1.8259,-1.8268,-1.8268,-1.8264,-1.8269,-1.819,-1.8258,-1.8258,-1.8257,-1.8257,-1.8257,-1.7923,-1.7947,-1.7974,-1.8006,-1.8026,-1.8049,-1.8074,-1.809,-1.8119,-1.8154,-1.8159,-1.8196,-1.8222,-1.8266,-1.8283,-1.8313,-1.8306,-1.8317,-1.8321,-1.8324,-1.8327,-1.8257,-1.8318,-1.8318,-1.8318,-1.8318,-1.8318,0,-1.798,-1.7998,-1.8027,-1.8062,-1.8088,-1.8086,-1.8113,-1.8135,-1.8168,-1.8192,-1.822,-1.826,-1.8293,-1.8313,-1.8347,-1.8367,-1.8368,-1.8375,-1.8375,-1.8379,-1.833,-1.8321,-1.8374,-1.8374,-1.8374,-1.8374,-1.8374,-1.8374,-1.8014,-1.8055,-1.8065,-1.8116,-1.8133,-1.8171,-1.8187,-1.8209,-1.8228,-1.8273,-1.8301,-1.8314,-1.8337,-1.8372,-1.8403,-1.8408,-1.8421,-1.8429,-1.8434,-1.8388,-1.8382,-1.8377,-1.8369,-1.8431,-1.8431,-1.8482,-1.8482,-1.8483]}]]